Regional Weather Roundup
Issued by NWS

Home | Current Version | Previous Version | Graphics & Text | Print | Product List | Glossary On
Versions: 1 2 3 4 5 6 7 8 9 10 11 12 13 14 15 16 17 18 19 20 21 22 23 24 25 26 27 28 29 30 31 32 33 34 35 36 37 38 39 40 41 42 43 44 45 46 47 48 49 50
000
ASUS43 KFSD 281410
RWRSD

WEATHER ROUNDUP FOR SOUTH DAKOTA
NATIONAL WEATHER SERVICE SIOUX FALLS SD
900 AM CDT FRI JUL 28 2017

NOTE: "FAIR" INDICATES FEW OR NO CLOUDS BELOW 12,000 FEET WITH NO
SIGNIFICANT WEATHER AND/OR OBSTRUCTIONS TO VISIBILITY.


SDZ001>005-009-010-012>017-281500-
NORTHWEST AND NORTH CENTRAL SOUTH DAKOTA

CITY           SKY/WX    TMP DP  RH WIND       PRES   REMARKS
BUFFALO          N/A     69  59  70 S14       29.99R
FAITH            N/A     67  62  84 SE12      30.05S
MOBRIDGE       MOSUNNY   73  64  73 SE12      30.03S
$$

SDZ012>016-024>037-041>051-057-063-072>074-281500-
SOUTHWEST AND SOUTH CENTRAL SOUTH DAKOTA

CITY           SKY/WX    TMP DP  RH WIND       PRES   REMARKS
RAPID CTY ARPT SUNNY     67  57  70 CALM      30.06S
PIERRE         CLOUDY    74  61  63 SE14      30.04R
CUSTER         PTSUNNY   63  57  81 W9        30.19S
ELLSWORTH AFB  SUNNY     66  59  77 CALM      30.05S
PHILIP         MOSUNNY   72  64  76 SE13      30.04R
PINE RIDGE     MOSUNNY   70  62  76 CALM      30.09R
SPEARFISH      FAIR      70  55  60 W6        30.09S
WINNER         FAIR      71  65  81 SE9       30.07F
$$

SDZ004>011-016>023-039-040-281500-
NORTHEAST SOUTH DAKOTA

CITY           SKY/WX    TMP DP  RH WIND       PRES   REMARKS
ABERDEEN       CLOUDY    73  64  73 S7        30.08S
WATERTOWN      CLOUDY    72  60  66 SE5       30.10S
BROOKINGS      CLOUDY    70  63  78 CALM      30.11S
SISSETON         N/A     73  65  75 E3        30.08S
$$

SDZ017-020-022-023-036>040-048>070-281500-
SOUTHEAST SOUTH DAKOTA

CITY           SKY/WX    TMP DP  RH WIND       PRES   REMARKS
SIOUX FALLS    CLOUDY    69  65  86 CALM      30.10S
HURON          CLOUDY    68  63  84 SE5       30.08S
CHAMBERLAIN    CLOUDY    71  66  83 SE8       30.07S
MITCHELL       MOSUNNY   70  65  84 E3        30.09R
YANKTON        MOSUNNY   67  64  90 E5        30.10R
$$

ABBREVIATIONS USED IN REMARKS
   TC - TEMPERATURE IN CELSIUS
  WCI - WIND CHILL INDEX
   HX - HEAT INDEX
  VSB - VISIBILITY




USA.gov is the U.S. government's official web portal to all federal, state and local government web resources and services.